Find Starlink 2593

NORAD ID: 48404 Int'l Des: 2021-038 Owner: SPXS Country: US Constellation: starlink operational
LEOCIRCULAR

Live-Position

3D-Globus wird geladen...

Über Starlink 2593

Beschreibung wird geladen...

Nächste Überflüge

Passes for default location (London). Set your location on the main map for personalized predictions.

Höhenverlauf

Loading altitude history...

Zweizeiliger Elementsatz

1 48404U 21038BD 26104.54208044 -.00002041 00000-0 -53991-4 0 9994
2 48404 53.1604 166.1055 0001521 72.7755 287.3413 15.31704966272930
Epoch: 14. Apr. 2026 • Age: 18 hours

Aktueller Status

Höhe 489.2 km
Geschwindigkeit 7.62 km/s
Subsatellitenpunkt -50.68°S, 141.46°E
Startdatum 4. Mai 2021
Alter 4.9 years
Typ internet

Technische Details

Klassifizierung Payload
Masse 260.00 kg
Trockenmasse 248.00 kg
Gesamtmasse 260.00 kg
Länge 0.20 m
Durchmesser 2.80 m
Spannweite 9.00 m
Form Box + pan
Hersteller SPXS
Bus-Typ Starlink
Phasenstatus In Orbit
Besitzer/Staat SPXS/US

Most Searched